STARLINK-1643, 46136

Orbit data source: Space-Track

STARLINK-1643, 46136 is a payload satellite owned by SpaceX/Seattle (US) in LEO that was launched on Tue, 18 Aug 2020 UTC via an FALCON 9 launch vehicle from the Air Force Eastern Test Range (AFETR). Payload-class satellites include a variety of spacecraft equipped with specific instruments for various scientific and technological missions. These include communications satellites like Starlink; space stations such as the ISS; scientific satellites like the Hubble; Earth observation satellites from companies like Planet Labs, Umbra, and HawkEye 360; GPS; miniature CubeSats for education and research; and military/defense satellites.

Loading next visibility...
Identifier
46136, 2020-057V
Orbit
LEO
Country
Flag of USUS
Related business
Manufacturer
SpaceX/Seattle
Mission
Partially operational Commercial Communications
Bus & Motor
STARLINK, Unknown motor
Mass
260 kg wet, ~248 kg dry
Launch date (UTC)
2020-08-18 (5 years ago)
Launch vehicle
FALCON 9
Launch site
Air Force Eastern Test Range (AFETR)
Object type
Payload
Rocket body
Debris
Shape & HBR
Box + 1 Pan, 10.1 m
Radar Cross Section
13.562 m², Large (>1 m²)

Expand to show TLE details & history
Last TLE update: 22 hours ago

TLE from 22 hours ago
0 STARLINK-1643
1 46136U 20057V   25300.83334491  .00263172  00000-0  17407-2 0  9991
2 46136  53.0416 145.9033 0006582 115.9111 286.1468 15.74233530  5784
Epoch: 2025-10-27T20:00Z
TLE epoch observation values (Epoch: 2025-10-27T20:00:01.000Z)
Latitude
32.41744°
Longitude
-162.1624°
Altitude
347.677 km
Speed
7.705 km/s
True Right ascension
11h 37m 05s
True Declination
32° 15' 09"
Sunlit
Object was in daylight at epoch
Visualization orbit readout
Latitude
Unknown
Longitude
Unknown
Altitude
Unknown
Speed
Unknown
Apparent Right ascension
Unknown
Apparent Declination
Unknown
Sunlit
N/A
Visualization observer readout
Local Sidereal Time
13:29:02
Azimuth
Unknown
Elevation
Unknown
Doppler factor
Unknown
Orbital elements
Apogee altitude
351.52 km
Perigee altitude
342.667 km
Semi-major axis
6,725.231 km
Eccentricity
0.00066
Inclination
53.0416°
RAAN
145.9033°
Arg. of periapsis
115.9111°
True anomaly
286.07433°
Mean anomaly
286.1468°
Eccentric anomaly
286.11057°
Mean motion
3.93534 °/min
Orbital period
91.48 mins
BSTAR
0.0017407
Loading maneuver chart data...
Computing Atmospheric mass density...

Documentation

Showing up to 5 results
|